Overview Statistics Trail Chart Weather Telemetry Raw packets
 

This is the latest recevied weather packets stored in our database for station/object SV9TNF-56. If no packets are shown the sender has not sent any weather packets the latest 10 day(s).

<< 99 100 101 102 103 104 105 >>
Time Temp. Humidity Pressure Rain* Wind** Luminosity Snow
1787917881 30° C 48% 1018.3 hPa 0 mm 12.07 m/s, 90° - -
1787917581 30° C 48% 1018 hPa 0 mm 11.18 m/s, 90° - -
1787917281 30° C 48% 1018.3 hPa 0 mm 15.2 m/s, 126° - -
1787916981 30° C 47% 1018.6 hPa 0 mm 8.49 m/s, 96° - -
1787916681 30° C 47% 1018.6 hPa 0 mm 8.05 m/s, 99° - -
1787916381 30° C 46% 1018.3 hPa 0 mm 8.05 m/s, 150° - -
1787916080 30° C 45% 1018.6 hPa 0 mm 4.47 m/s, 124° - -
1787915780 30° C 46% 1018.6 hPa 0 mm 5.81 m/s, 108° - -
1787915481 30° C 45% 1018.6 hPa 0 mm 9.83 m/s, 106° - -
1787915180 30° C 46% 1018.6 hPa 0 mm 7.15 m/s, 210° - -
1787914880 30° C 46% 1018.6 hPa 0 mm 5.81 m/s, 270° - -
1787914580 30° C 47% 1018.6 hPa 0 mm 9.83 m/s, 249° - -
1787914280 30° C 46% 1019 hPa 0 mm 13.41 m/s, 112° - -
1787913980 30° C 45% 1018.6 hPa 0 mm 8.05 m/s, 197° - -
1787913680 30° C 45% 1018.6 hPa 0 mm 8.49 m/s, 138° - -
1787913380 30° C 45% 1018.6 hPa 0 mm 4.92 m/s, 210° - -
1787913080 30° C 46% 1019 hPa 0 mm 5.36 m/s, 153° - -
1787912780 30° C 47% 1018.6 hPa 0 mm 7.6 m/s, 108° - -
1787912479 30° C 46% 1019 hPa 0 mm 8.94 m/s, 257° - -
1787912179 29.44° C 47% 1018.6 hPa 0 mm 6.71 m/s, 102° - -
1787911887 28.89° C 48% 1018.6 hPa 0 mm 5.81 m/s, 182° - -
1787911579 29.44° C 49% 1018.6 hPa 0 mm 13.86 m/s, 169° - -
1787911279 28.89° C 50% 1018.6 hPa 0 mm 8.05 m/s, 224° - -
1787910979 30° C 49% 1018.6 hPa 0 mm 8.94 m/s, 168° - -
1787910679 30° C 49% 1018.6 hPa 0 mm 12.52 m/s, 168° - -

* Rain latest hour (hover to see other rain measurements)
** Current wind speed in m/s (hover to see current wind gust speed)